Weather History for KN60 - August, 2014

Change the Weather History Date:

Tuesday, August 26, 2014

  Actual Average Record
Temperature  
Mean Temperature 56 °F -  
Max Temperature 67 °F 80 °F 93 °F (2007)
Min Temperature 44 °F 52 °F 44 °F (2014)
Degree Days  
Heating Degree Days 10    
Growing Degree Days 6 (Base 50)    
Moisture  
Dew Point 49 °F    
Average Humidity 76    
Maximum Humidity 100    
Minimum Humidity 52    
Precipitation  
Precipitation 0.00 in - - ()
Month to date precipitation 7.50  
Year to date precipitation 19.80  
Sea Level Pressure  
Sea Level Pressure 30.17 in    
Wind  
Wind Speed 5 mph (SW)    
Max Wind Speed 10 mph    
Max Gust Speed 13 mph    
Averages and records for this station are not official NWS values.
T = Trace of Precipitation, MM = Missing Value Source: NWS Daily Summary

Daily Weather History Graph

Daily Weather History Graph

Search for Another Location

Airport or City:

Trip Planner

Search our weather history database for the weather conditions in past years. The results will help you decide how hot, cold, wet, or windy it might be!

Date:

Astronomy

Aug. 26, 2014 Rise Set
Actual Time 6:56 AM CDT 8:37 PM CDT
Civil Twilight 6:23 AM CDT 9:10 PM CDT
Nautical Twilight 5:43 AM CDT 9:49 PM CDT
Astronomical Twilight 5:00 AM CDT 10:33 PM CDT
Moon 8:06 AM CDT (8/26) 8:50 PM CDT (8/26)
Length of Visible Light 14h 46m
Length of Day
13h 41m
New Moon, 1% of the Moon is Illuminated
Aug 26
New Moon
Sep 2
First Quarter
Sep 8
Full
Sep 15
Last Quarter
Sep 24
New

Hourly Weather History & Observations

Time (CDT) Temp. Windchill Dew Point Humidity Pressure Visibility Wind Dir Wind Speed Gust Speed Precip Events Conditions
12:52 AM 50.0 °F - 46.9 °F 89% 30.15 in - WNW 6.9 mph - N/A   Unknown
1:52 AM 48.9 °F - 46.9 °F 93% 30.15 in - WNW 6.9 mph - N/A   Unknown
2:52 AM 46.9 °F - 46.0 °F 97% 30.15 in - WNW 3.5 mph - N/A   Unknown
3:52 AM 45.0 °F 41.2 °F 44.1 °F 97% 30.15 in - NW 6.9 mph - N/A   Unknown
4:52 AM 45.0 °F 43.5 °F 44.1 °F 97% 30.17 in - WSW 3.5 mph - N/A   Unknown
5:52 AM 46.9 °F - 45.0 °F 93% 30.17 in - WNW 5.8 mph - N/A   Unknown
6:52 AM 45.0 °F - 43.0 °F 93% 30.17 in - Calm Calm - N/A   Unknown
7:52 AM 48.0 °F - 46.0 °F 93% 30.19 in - Calm Calm - N/A   Unknown
8:52 AM 54.0 °F - 52.0 °F 93% 30.20 in - West 4.6 mph - N/A   Unknown
9:52 AM 57.0 °F - 51.1 °F 81% 30.19 in - NW 3.5 mph - N/A   Unknown
10:52 AM 59.0 °F - 50.0 °F 72% 30.22 in - SSW 5.8 mph - N/A   Unknown
11:52 AM 62.1 °F - 51.1 °F 67% 30.21 in - Calm Calm - N/A   Unknown
12:52 PM 61.0 °F - 51.1 °F 70% 30.19 in - South 6.9 mph - N/A   Unknown
1:52 PM 64.0 °F - 51.1 °F 63% 30.19 in - South 8.1 mph - N/A   Unknown
2:52 PM 64.9 °F - 48.0 °F 54% 30.18 in - North - - N/A   Unknown
3:52 PM 64.9 °F - 46.0 °F 50% 30.17 in - South 6.9 mph - N/A   Unknown
4:52 PM 66.0 °F - 48.9 °F 54% 30.16 in - SW 4.6 mph - N/A   Unknown
5:52 PM 66.0 °F - 51.1 °F 59% 30.14 in - Variable 3.5 mph - N/A   Unknown
6:52 PM 66.0 °F - 52.0 °F 60% 30.14 in - SSE 3.5 mph - N/A   Unknown
7:52 PM 63.0 °F - 54.0 °F 72% 30.14 in - SE 3.5 mph - N/A   Unknown
8:52 PM 57.9 °F - 53.1 °F 84% 30.15 in - SE 3.5 mph - N/A   Unknown
9:52 PM 55.0 °F - 52.0 °F 89% 30.17 in - Calm Calm - N/A   Unknown
10:52 PM 55.0 °F - 53.1 °F 93% 30.17 in - SSW 6.9 mph - N/A   Unknown
11:52 PM 52.0 °F - 51.1 °F 97% 30.19 in - SW 5.8 mph - N/A   Unknown